User: anonymous   Login
Location: Unspecified
(0.0000°N, 0.0000°E)
Time: 08:09:22
(UTC+00:00)
Language:

AEROCUBE 6A - Orbit

View from above orbital plane
View from above orbital plane
View from above satellite
View from above satellite

Ground track
Ground track

The orbit data is extracted from the following two-line orbital elements,

1 40045U 14033AM  19345.62187230 +.00000229 +00000-0 +40287-4 0  9993
2 40045 097.7554 210.2856 0056518 240.6748 118.8808 14.75480266294262
Epoch (UTC): 11 December 2019 14:55:29
Eccentricity: 0.0056518
inclination: 97.7554°
perigee height: 604 km
apogee height: 683 km
right ascension of ascending node: 210.2856°
argument of perigee: 240.6748°
revolutions per day: 14.75480266
mean anomaly at epoch: 118.8808°
orbit number at epoch: 29426

The dashed part of the orbit path shows where the satellite is in the earth's shadow,  

DLR